QTR83N KLAX-KSFO

Flight info

Callsign QTR83N
Flight time 0h 51m
Altitude 30000
Route SUMMR2 STOKD DCT SERFR SERFR4
Aircraft B77W/H-SDE1E2E3FGHIJ2J3J4J5M1RWXY/LB1D1

Departure

Time 2026-05-05 00:50
Airport Los Angeles International Airport (KLAX)

Arrival

Time 2026-05-05 01:41
Airport San Francisco International Airport (KSFO)
Time Latitude Longitude Altitude Speed Heading
2026-05-05 00:22 33.94098 -118.41103 130 ft 0 kts 83°
2026-05-05 00:38 33.94096 -118.41113 125 ft 2 kts 82°
2026-05-05 00:38 33.94094 -118.41132 127 ft 2 kts 78°
2026-05-05 00:38 33.94090 -118.41152 125 ft 2 kts 73°
2026-05-05 00:39 33.94084 -118.41170 125 ft 2 kts 59°
2026-05-05 00:39 33.94073 -118.41185 125 ft 2 kts 19°
2026-05-05 00:39 33.94060 -118.41188 126 ft 1 kts 351°
2026-05-05 00:39 33.94057 -118.41187 127 ft 0 kts 349°
2026-05-05 00:43 33.94059 -118.41188 127 ft 1 kts 350°
2026-05-05 00:44 33.94073 -118.41190 125 ft 3 kts 352°
2026-05-05 00:44 33.94098 -118.41194 125 ft 4 kts 353°
2026-05-05 00:44 33.94162 -118.41203 128 ft 13 kts 353°
2026-05-05 00:44 33.94248 -118.41216 127 ft 13 kts 353°
2026-05-05 00:45 33.94378 -118.41236 128 ft 22 kts 352°
2026-05-05 00:45 33.94530 -118.41260 126 ft 23 kts 352°
2026-05-05 00:45 33.94703 -118.41287 128 ft 23 kts 354°
2026-05-05 00:45 33.94804 -118.41175 126 ft 23 kts 79°
2026-05-05 00:46 33.94826 -118.40988 127 ft 23 kts 82°
2026-05-05 00:46 33.94845 -118.40797 129 ft 24 kts 83°
2026-05-05 00:46 33.94865 -118.40589 127 ft 26 kts 83°
2026-05-05 00:46 33.94886 -118.40377 128 ft 26 kts 82°
2026-05-05 00:47 33.94909 -118.40165 129 ft 26 kts 83°
2026-05-05 00:47 33.94937 -118.39962 128 ft 11 kts 65°
2026-05-05 00:47 33.94939 -118.39958 127 ft 0 kts 62°
2026-05-05 00:48 33.94940 -118.39957 127 ft 1 kts 62°
2026-05-05 00:48 33.94980 -118.39926 125 ft 14 kts 18°
2026-05-05 00:48 33.95026 -118.39932 127 ft 3 kts 312°
2026-05-05 00:48 33.95036 -118.39984 126 ft 4 kts 268°
2026-05-05 00:49 33.95033 -118.40042 125 ft 30 kts 266°
2026-05-05 00:49 33.94974 -118.40606 126 ft 103 kts 263°
2026-05-05 00:49 33.94858 -118.41719 133 ft 162 kts 262°
2026-05-05 00:49 33.94759 -118.42658 306 ft 176 kts 262°
2026-05-05 00:50 33.94616 -118.44152 890 ft 181 kts 262°
2026-05-05 00:50 33.94472 -118.45617 1770 ft 176 kts 263°
2026-05-05 00:50 33.94333 -118.47105 2244 ft 186 kts 265°
2026-05-05 00:50 33.94262 -118.49308 2648 ft 213 kts 267°
2026-05-05 00:51 33.94210 -118.51189 2908 ft 237 kts 266°
2026-05-05 00:51 33.94120 -118.52552 3276 ft 243 kts 264°
2026-05-05 00:51 33.93954 -118.54608 3975 ft 251 kts 264°
2026-05-05 00:51 33.93786 -118.56677 4838 ft 251 kts 265°
2026-05-05 00:52 33.93616 -118.58798 5544 ft 258 kts 265°
2026-05-05 00:52 33.93449 -118.60925 6476 ft 254 kts 265°
2026-05-05 00:52 33.93282 -118.63051 7230 ft 257 kts 264°
2026-05-05 00:52 33.93114 -118.65192 7999 ft 258 kts 264°
2026-05-05 00:53 33.92947 -118.67354 8687 ft 261 kts 263°
2026-05-05 00:53 33.92775 -118.69565 9354 ft 268 kts 263°
2026-05-05 00:53 33.92599 -118.71821 10026 ft 273 kts 263°
2026-05-05 00:53 33.92417 -118.74143 10448 ft 288 kts 263°
2026-05-05 00:54 33.92219 -118.76645 10633 ft 312 kts 263°
2026-05-05 00:54 33.92006 -118.79345 10814 ft 336 kts 263°
2026-05-05 00:54 33.91779 -118.82225 11276 ft 351 kts 263°
2026-05-05 00:54 33.91640 -118.85191 12005 ft 360 kts 269°
2026-05-05 00:55 33.91740 -118.88223 12915 ft 364 kts 272°
2026-05-05 00:55 33.91897 -118.91284 13892 ft 368 kts 271°
2026-05-05 00:55 33.92026 -118.94377 14739 ft 372 kts 271°
2026-05-05 00:55 33.92127 -118.97464 15572 ft 376 kts 270°
2026-05-05 00:56 33.92296 -119.00619 16326 ft 381 kts 277°
2026-05-05 00:56 33.93162 -119.03677 17013 ft 394 kts 296°
2026-05-05 00:56 33.94633 -119.06485 17717 ft 400 kts 300°
2026-05-05 00:56 33.96159 -119.09311 18450 ft 406 kts 299°
2026-05-05 00:57 33.97680 -119.12191 19225 ft 407 kts 298°
2026-05-05 00:57 33.99179 -119.15079 20087 ft 406 kts 297°
2026-05-05 00:57 34.00704 -119.17954 20843 ft 410 kts 301°
2026-05-05 00:57 34.02750 -119.20433 21416 ft 424 kts 318°
2026-05-05 00:58 34.05198 -119.22486 21939 ft 433 kts 320°
2026-05-05 00:58 34.07701 -119.24549 22605 ft 437 kts 319°
2026-05-05 00:58 34.10212 -119.26632 23367 ft 438 kts 318°
2026-05-05 00:58 34.12717 -119.28738 24006 ft 441 kts 317°
2026-05-05 00:59 34.15213 -119.30864 24490 ft 446 kts 317°
2026-05-05 00:59 34.17755 -119.33047 24984 ft 451 kts 317°
2026-05-05 00:59 34.20318 -119.35257 25487 ft 454 kts 316°
2026-05-05 00:59 34.22897 -119.37485 26006 ft 458 kts 316°
2026-05-05 01:00 34.25499 -119.39734 26481 ft 462 kts 316°
2026-05-05 01:00 34.28124 -119.42005 26962 ft 466 kts 316°
2026-05-05 01:00 34.30771 -119.44295 27431 ft 470 kts 315°
2026-05-05 01:00 34.33442 -119.46606 27878 ft 473 kts 315°
2026-05-05 01:01 34.36094 -119.48903 28290 ft 477 kts 315°
2026-05-05 01:01 34.38806 -119.51254 28719 ft 481 kts 315°
2026-05-05 01:01 34.41508 -119.53633 29259 ft 477 kts 312°
2026-05-05 01:01 34.43987 -119.56251 29908 ft 467 kts 306°
2026-05-05 01:02 34.46263 -119.59032 30488 ft 462 kts 303°
2026-05-05 01:02 34.48456 -119.61870 30978 ft 460 kts 303°
2026-05-05 01:02 34.50627 -119.64702 31531 ft 458 kts 302°
2026-05-05 01:02 34.52822 -119.67535 31838 ft 462 kts 303°
2026-05-05 01:03 34.55056 -119.70375 32065 ft 467 kts 304°
2026-05-05 01:03 34.59574 -119.76002 32039 ft 468 kts 304°
2026-05-05 01:04 34.64178 -119.81684 32445 ft 473 kts 304°
2026-05-05 01:04 34.68791 -119.87380 33060 ft 472 kts 305°
2026-05-05 01:04 34.71095 -119.90232 33042 ft 472 kts 305°
2026-05-05 01:05 34.75680 -119.95916 32862 ft 469 kts 305°
2026-05-05 01:05 34.80243 -120.01592 32742 ft 469 kts 305°
2026-05-05 01:06 34.84805 -120.07273 32658 ft 469 kts 305°
2026-05-05 01:06 34.89325 -120.12914 32624 ft 468 kts 306°
2026-05-05 01:07 34.93877 -120.18605 32426 ft 469 kts 306°
2026-05-05 01:07 34.98431 -120.24305 32417 ft 468 kts 306°
2026-05-05 01:08 35.02960 -120.29980 32359 ft 466 kts 306°
2026-05-05 01:08 35.07474 -120.35658 32282 ft 466 kts 307°
2026-05-05 01:09 35.12089 -120.41179 32141 ft 469 kts 310°
2026-05-05 01:09 35.16965 -120.46556 32036 ft 469 kts 311°
2026-05-05 01:10 35.21805 -120.51901 32041 ft 469 kts 311°
2026-05-05 01:10 35.26619 -120.57297 32050 ft 470 kts 311°
2026-05-05 01:11 35.31430 -120.62721 32045 ft 470 kts 311°
2026-05-05 01:11 35.36209 -120.68116 32039 ft 470 kts 312°
2026-05-05 01:12 35.41026 -120.73559 32043 ft 471 kts 312°
2026-05-05 01:12 35.45833 -120.79000 32033 ft 469 kts 313°
2026-05-05 01:13 35.50725 -120.84317 32052 ft 472 kts 317°
2026-05-05 01:13 35.55993 -120.89154 32048 ft 473 kts 320°
2026-05-05 01:14 35.61311 -120.93924 32038 ft 473 kts 320°
2026-05-05 01:14 35.66577 -120.98765 32052 ft 473 kts 320°
2026-05-05 01:15 35.71829 -121.03661 32044 ft 473 kts 320°
2026-05-05 01:15 35.77044 -121.08540 32046 ft 474 kts 320°
2026-05-05 01:16 35.82298 -121.13459 32043 ft 474 kts 321°
2026-05-05 01:16 35.87550 -121.18381 32039 ft 474 kts 320°
2026-05-05 01:17 35.92704 -121.23218 32021 ft 453 kts 321°
2026-05-05 01:17 35.97620 -121.27840 31492 ft 440 kts 321°
2026-05-05 01:18 36.00045 -121.30126 31063 ft 436 kts 322°
2026-05-05 01:18 36.02450 -121.32394 30637 ft 433 kts 322°
2026-05-05 01:18 36.04835 -121.34644 30184 ft 430 kts 322°
2026-05-05 01:18 36.07219 -121.36874 29680 ft 427 kts 324°
2026-05-05 01:19 36.09639 -121.38902 29180 ft 424 kts 328°
2026-05-05 01:19 36.12131 -121.40828 28728 ft 420 kts 329°
2026-05-05 01:19 36.14624 -121.42708 28268 ft 417 kts 329°
2026-05-05 01:19 36.17088 -121.44569 27814 ft 414 kts 329°
2026-05-05 01:20 36.19532 -121.46436 27363 ft 411 kts 329°
2026-05-05 01:20 36.21953 -121.48304 26917 ft 408 kts 329°
2026-05-05 01:20 36.24352 -121.50168 26477 ft 405 kts 329°
2026-05-05 01:20 36.26739 -121.52030 26037 ft 403 kts 329°
2026-05-05 01:21 36.29104 -121.53881 25608 ft 401 kts 329°
2026-05-05 01:21 36.31423 -121.55697 25185 ft 399 kts 329°
2026-05-05 01:21 36.33796 -121.57557 24750 ft 397 kts 329°
2026-05-05 01:21 36.36129 -121.59385 24318 ft 396 kts 329°
2026-05-05 01:22 36.38423 -121.61185 23906 ft 395 kts 329°
2026-05-05 01:22 36.40742 -121.63005 23439 ft 394 kts 330°
2026-05-05 01:22 36.43052 -121.64820 22957 ft 392 kts 330°
2026-05-05 01:22 36.45347 -121.66624 22505 ft 389 kts 330°
2026-05-05 01:23 36.47631 -121.68420 22059 ft 387 kts 330°
2026-05-05 01:23 36.49898 -121.70204 21640 ft 384 kts 330°
2026-05-05 01:23 36.52155 -121.71984 21207 ft 382 kts 330°
2026-05-05 01:23 36.54394 -121.73753 20783 ft 380 kts 330°
2026-05-05 01:24 36.56598 -121.75497 20362 ft 378 kts 330°
2026-05-05 01:24 36.58812 -121.77248 19939 ft 376 kts 330°
2026-05-05 01:24 36.61017 -121.78995 19523 ft 375 kts 330°
2026-05-05 01:24 36.63209 -121.80732 19104 ft 373 kts 330°
2026-05-05 01:25 36.65398 -121.82468 18670 ft 372 kts 329°
2026-05-05 01:25 36.67580 -121.84199 18226 ft 371 kts 329°
2026-05-05 01:25 36.69754 -121.85925 17725 ft 371 kts 329°
2026-05-05 01:25 36.71912 -121.87640 17205 ft 362 kts 329°
2026-05-05 01:26 36.74020 -121.89254 16760 ft 349 kts 335°
2026-05-05 01:26 36.76265 -121.90159 16360 ft 333 kts 350°
2026-05-05 01:26 36.78505 -121.90723 15961 ft 325 kts 350°
2026-05-05 01:26 36.80717 -121.91297 15566 ft 325 kts 349°
2026-05-05 01:27 36.82930 -121.91890 15171 ft 325 kts 349°
2026-05-05 01:27 36.85141 -121.92493 14774 ft 325 kts 349°
2026-05-05 01:27 36.87354 -121.93106 14371 ft 326 kts 348°
2026-05-05 01:27 36.89569 -121.93723 13989 ft 326 kts 348°
2026-05-05 01:28 36.91761 -121.94336 13557 ft 327 kts 348°
2026-05-05 01:28 36.93980 -121.94957 13130 ft 327 kts 348°
2026-05-05 01:28 36.96196 -121.95626 12726 ft 327 kts 345°
2026-05-05 01:28 36.98377 -121.96446 12324 ft 326 kts 343°
2026-05-05 01:29 37.00538 -121.97311 11934 ft 326 kts 343°
2026-05-05 01:29 37.02695 -121.98181 11547 ft 325 kts 343°
2026-05-05 01:29 37.04852 -121.99043 11148 ft 325 kts 343°
2026-05-05 01:29 37.07014 -121.99900 10773 ft 325 kts 343°
2026-05-05 01:30 37.09168 -122.00749 10462 ft 323 kts 343°
2026-05-05 01:30 37.11281 -122.01579 10317 ft 311 kts 343°
2026-05-05 01:30 37.13281 -122.02363 10157 ft 291 kts 343°
2026-05-05 01:30 37.15130 -122.03088 10018 ft 273 kts 343°
2026-05-05 01:31 37.16895 -122.03780 9694 ft 262 kts 343°
2026-05-05 01:31 37.18645 -122.04465 9336 ft 262 kts 343°
2026-05-05 01:31 37.20379 -122.05144 9012 ft 260 kts 343°
2026-05-05 01:31 37.22113 -122.05823 8651 ft 261 kts 343°
2026-05-05 01:32 37.23848 -122.06504 8305 ft 261 kts 343°
2026-05-05 01:32 37.25589 -122.07186 7998 ft 260 kts 343°
2026-05-05 01:32 37.27300 -122.07858 7986 ft 255 kts 343°
2026-05-05 01:32 37.28968 -122.08514 7885 ft 254 kts 343°
2026-05-05 01:33 37.30643 -122.09174 7672 ft 251 kts 343°
2026-05-05 01:33 37.32356 -122.09848 7090 ft 265 kts 343°
2026-05-05 01:33 37.34135 -122.10549 6676 ft 270 kts 343°
2026-05-05 01:33 37.35938 -122.11261 6290 ft 272 kts 343°
2026-05-05 01:34 37.37733 -122.11966 5964 ft 262 kts 344°
2026-05-05 01:34 37.39427 -122.12564 5621 ft 248 kts 345°
2026-05-05 01:34 37.41043 -122.13107 5327 ft 234 kts 345°
2026-05-05 01:34 37.42578 -122.13628 5017 ft 221 kts 345°
2026-05-05 01:35 37.44018 -122.14118 4824 ft 207 kts 344°
2026-05-05 01:35 37.45342 -122.14567 4567 ft 193 kts 344°
2026-05-05 01:35 37.46624 -122.14989 4324 ft 190 kts 344°
2026-05-05 01:35 37.47911 -122.15412 4098 ft 192 kts 344°
2026-05-05 01:36 37.49205 -122.15838 3870 ft 192 kts 343°
2026-05-05 01:36 37.50496 -122.16262 3625 ft 189 kts 343°
2026-05-05 01:36 37.51759 -122.16679 3411 ft 187 kts 342°
2026-05-05 01:36 37.52978 -122.17190 3153 ft 181 kts 323°
2026-05-05 01:37 37.53551 -122.17911 3006 ft 174 kts 301°
2026-05-05 01:37 37.54463 -122.19627 2758 ft 181 kts 302°
2026-05-05 01:37 37.54921 -122.20511 2616 ft 183 kts 300°
2026-05-05 01:37 37.55559 -122.21909 2390 ft 182 kts 296°
2026-05-05 01:38 37.56131 -122.23255 2121 ft 165 kts 296°
2026-05-05 01:38 37.56638 -122.24465 1927 ft 149 kts 296°
2026-05-05 01:38 37.57144 -122.25674 1925 ft 165 kts 296°
2026-05-05 01:38 37.57666 -122.26923 1672 ft 156 kts 296°
2026-05-05 01:39 37.58166 -122.28113 1430 ft 150 kts 297°
2026-05-05 01:39 37.58639 -122.29241 1212 ft 144 kts 297°
2026-05-05 01:39 37.59105 -122.30355 958 ft 143 kts 297°
2026-05-05 01:39 37.59575 -122.31461 793 ft 143 kts 296°
2026-05-05 01:40 37.60040 -122.32594 652 ft 146 kts 297°
2026-05-05 01:40 37.60522 -122.33730 423 ft 146 kts 296°
2026-05-05 01:40 37.60990 -122.34861 237 ft 144 kts 296°
2026-05-05 01:40 37.61460 -122.35980 35 ft 144 kts 297°
2026-05-05 01:41 37.61875 -122.36958 25 ft 104 kts 298°
2026-05-05 01:41 37.62127 -122.37558 27 ft 47 kts 298°
2026-05-05 01:41 37.62205 -122.37864 27 ft 36 kts 280°
2026-05-05 01:41 37.62225 -122.38068 28 ft 0 kts 276°
2026-05-05 01:45 37.62228 -122.38119 28 ft 12 kts 271°
2026-05-05 01:45 37.62208 -122.38231 27 ft 14 kts 238°
2026-05-05 01:45 37.62144 -122.38320 28 ft 14 kts 230°
2026-05-05 01:46 37.62143 -122.38433 29 ft 14 kts 292°
2026-05-05 01:46 37.62183 -122.38543 29 ft 14 kts 289°
2026-05-05 01:46 37.62174 -122.38665 21 ft 15 kts 263°
2026-05-05 01:46 37.62203 -122.38789 17 ft 15 kts 296°
2026-05-05 01:47 37.62236 -122.38912 17 ft 14 kts 261°
2026-05-05 01:47 37.62170 -122.38988 18 ft 6 kts 208°
2026-05-05 01:47 37.62164 -122.38993 18 ft 0 kts 208°